| time (UTC) | temp F | wind direction | speed MPH | gust MPH | rain 1hr in | rain 24hr in | rain mn in | humidity % | barometer mb |
| 20260507060056 | 47 | 280 | 2.0 | 3.0 | 0.00 | 0.10 | 0.00 | 91 | 1015.5 |
| 20260507055052 | 46 | 284 | 2.0 | 3.0 | 0.00 | 0.11 | 0.00 | 92 | 1015.4 |
| 20260507053054 | 46 | 270 | 2.0 | 3.0 | 0.00 | 0.13 | 0.00 | 94 | 1015.3 |
| 20260507052057 | 45 | 257 | 2.0 | 3.0 | 0.00 | 0.15 | 0.00 | 95 | 1015.2 |
| 20260507051057 | 45 | 229 | 1.0 | 3.0 | 0.00 | 0.17 | 0.00 | 95 | 1015.1 |
| 20260507050056 | 45 | 257 | 2.0 | 3.0 | 0.00 | 0.17 | 0.00 | 95 | 1015.0 |
| 20260507045058 | 45 | 257 | 2.0 | 3.0 | 0.00 | 0.19 | 0.00 | 95 | 1014.9 |
| 20260507044058 | 45 | 249 | 3.0 | 4.0 | 0.00 | 0.20 | 0.00 | 95 | 1014.8 |
| 20260507043058 | 45 | 250 | 2.0 | 3.0 | 0.00 | 0.20 | 0.00 | 94 | 1014.7 |
| 20260507042059 | 45 | 277 | 0.0 | 0.0 | 0.00 | 0.21 | 0.00 | 95 | 1014.7 |
| 20260507041055 | 45 | 286 | 0.0 | 0.0 | 0.00 | 0.22 | 0.00 | 95 | 1014.6 |
| 20260507040058 | 45 | 302 | 1.0 | 2.0 | 0.00 | 0.23 | 0.00 | 95 | 1014.5 |
| 20260507035057 | 45 | 300 | 2.0 | 3.0 | 0.00 | 0.23 | 0.00 | 95 | 1014.5 |
| 20260507034056 | 45 | 247 | 2.0 | 3.0 | 0.00 | 0.24 | 0.00 | 94 | 1014.5 |
| 20260507033056 | 45 | 233 | 2.0 | 3.0 | 0.00 | 0.24 | 0.00 | 94 | 1014.5 |
| 20260507032058 | 45 | 240 | 2.0 | 3.0 | 0.00 | 0.24 | 0.00 | 94 | 1014.4 |
| 20260507031056 | 45 | 238 | 3.0 | 3.0 | 0.00 | 0.24 | 0.00 | 94 | 1014.3 |
| 20260507030056 | 45 | 231 | 2.0 | 3.0 | 0.00 | 0.25 | 0.00 | 93 | 1014.3 |
| 20260507025055 | 45 | 238 | 3.0 | 4.0 | 0.00 | 0.25 | 0.00 | 92 | 1014.2 |
| 20260507024055 | 45 | 265 | 3.0 | 4.0 | 0.00 | 0.25 | 0.00 | 91 | 1014.2 |
| 20260507023054 | 45 | 18 | 1.0 | 3.0 | 0.00 | 0.26 | 0.00 | 90 | 1014.2 |
| 20260507022057 | 45 | 5 | 2.0 | 3.0 | 0.00 | 0.26 | 0.00 | 91 | 1014.1 |
| 20260507021058 | 45 | 30 | 2.0 | 3.0 | 0.00 | 0.27 | 0.00 | 91 | 1014.0 |
| 20260507020057 | 45 | 30 | 3.0 | 5.0 | 0.00 | 0.28 | 0.00 | 91 | 1013.9 |
| 20260507015055 | 46 | 45 | 4.0 | 6.0 | 0.00 | 0.28 | 0.00 | 91 | 1013.8 |
| 20260507014057 | 46 | 48 | 5.0 | 7.0 | 0.00 | 0.28 | 0.00 | 91 | 1013.9 |
| 20260507013054 | 46 | 49 | 6.0 | 8.0 | 0.00 | 0.28 | 0.00 | 92 | 1013.9 |
| 20260507012053 | 46 | 47 | 5.0 | 8.0 | 0.00 | 0.29 | 0.00 | 93 | 1013.9 |
| 20260507011059 | 46 | 24 | 4.0 | 8.0 | 0.00 | 0.29 | 0.00 | 93 | 1013.9 |
| 20260507010100 | 46 | 4 | 4.0 | 6.0 | 0.00 | 0.30 | 0.00 | 94 | 1013.8 |
| 20260507005056 | 46 | 355 | 3.0 | 5.0 | 0.00 | 0.30 | 0.00 | 94 | 1013.8 |
| 20260507004058 | 46 | 340 | 3.0 | 4.0 | 0.00 | 0.31 | 0.00 | 94 | 1013.8 |
| 20260507003056 | 46 | 346 | 3.0 | 4.0 | 0.00 | 0.31 | 0.00 | 94 | 1013.7 |
| 20260507002057 | 46 | 348 | 3.0 | 4.0 | 0.00 | 0.33 | 0.00 | 94 | 1013.7 |
| 20260506235107 | 46 | 350 | 2.0 | 3.0 | 0.00 | 0.35 | 0.00 | 93 | 1013.6 |
| 20260506234106 | 46 | 357 | 2.0 | 3.0 | 0.00 | 0.36 | 0.00 | 93 | 1013.5 |
| 20260506233106 | 46 | 20 | 2.0 | 3.0 | 0.00 | 0.37 | 0.00 | 93 | 1013.4 |
| 20260506232105 | 46 | 9 | 3.0 | 5.0 | 0.00 | 0.38 | 0.00 | 93 | 1013.4 |
| 20260506231107 | 46 | 24 | 3.0 | 5.0 | 0.00 | 0.39 | 0.00 | 93 | 1013.4 |
| 20260506230107 | 46 | 355 | 3.0 | 4.0 | 0.00 | 0.39 | 0.00 | 92 | 1013.3 |
| 20260506225105 | 46 | 342 | 3.0 | 4.0 | 0.00 | 0.40 | 0.00 | 92 | 1013.3 |
| 20260506224107 | 46 | 337 | 3.0 | 4.0 | 0.00 | 0.42 | 0.00 | 92 | 1013.2 |
| 20260506223106 | 46 | 338 | 3.0 | 4.0 | 0.00 | 0.43 | 0.00 | 92 | 1013.1 |
| 20260506221105 | 45 | 337 | 5.0 | 6.0 | 0.00 | 0.43 | 0.00 | 91 | 1013.0 |
| 20260506220116 | 45 | 338 | 5.0 | 6.0 | 0.00 | 0.44 | 0.00 | 90 | 1012.9 |
| 20260506214112 | 45 | 331 | 5.0 | 7.0 | 0.00 | 0.46 | 0.44 | 88 | 1012.7 |
| 20260506213111 | 46 | 331 | 4.0 | 6.0 | 0.00 | 0.46 | 0.44 | 87 | 1012.7 |
| 20260506212114 | 46 | 358 | 3.0 | 6.0 | 0.00 | 0.47 | 0.44 | 86 | 1012.6 |
| 20260506211114 | 46 | 12 | 5.0 | 8.0 | 0.00 | 0.48 | 0.44 | 85 | 1012.5 |
| 20260506210113 | 46 | 14 | 6.0 | 11.0 | 0.00 | 0.49 | 0.44 | 85 | 1012.4 |
| 20260506205109 | 46 | 13 | 6.0 | 10.0 | 0.00 | 0.50 | 0.44 | 84 | 1012.3 |
| 20260506203111 | 47 | 6 | 6.0 | 9.0 | 0.00 | 0.51 | 0.44 | 82 | 1012.2 |
| 20260506202114 | 47 | 6 | 4.0 | 8.0 | 0.00 | 0.51 | 0.44 | 82 | 1012.1 |
| 20260506200112 | 48 | 20 | 4.0 | 6.0 | 0.00 | 0.53 | 0.44 | 80 | 1012.0 |
| 20260506195112 | 48 | 30 | 4.0 | 6.0 | 0.00 | 0.54 | 0.44 | 80 | 1011.8 |
| 20260506194113 | 49 | 19 | 5.0 | 8.0 | 0.00 | 0.54 | 0.44 | 79 | 1011.7 |
| 20260506193117 | 50 | 11 | 5.0 | 8.0 | 0.00 | 0.55 | 0.44 | 78 | 1011.6 |
| 20260506192113 | 50 | 23 | 4.0 | 7.0 | 0.00 | 0.56 | 0.44 | 80 | 1011.4 |
| 20260506191111 | 51 | 18 | 4.0 | 7.0 | 0.00 | 0.56 | 0.44 | 79 | 1011.4 |
| 20260506190112 | 51 | 22 | 4.0 | 6.0 | 0.00 | 0.57 | 0.44 | 78 | 1011.2 |
| 20260506185112 | 51 | 19 | 4.0 | 8.0 | 0.00 | 0.57 | 0.44 | 78 | 1011.1 |
| 20260506184104 | 51 | 23 | 4.0 | 6.0 | 0.00 | 0.58 | 0.44 | 78 | 1011.0 |
| 20260506183110 | 51 | 48 | 3.0 | 6.0 | 0.00 | 0.58 | 0.44 | 79 | 1010.9 |
| 20260506182113 | 51 | 45 | 4.0 | 6.0 | 0.00 | 0.59 | 0.44 | 79 | 1010.8 |
| 20260506181102 | 52 | 41 | 5.0 | 9.0 | 0.00 | 0.60 | 0.44 | 79 | 1010.6 |
| 20260506180111 | 52 | 36 | 5.0 | 9.0 | 0.00 | 0.61 | 0.44 | 78 | 1010.5 |
| 20260506175110 | 52 | 17 | 4.0 | 7.0 | 0.00 | 0.61 | 0.44 | 78 | 1010.3 |
| 20260506174106 | 52 | 12 | 4.0 | 9.0 | 0.00 | 0.62 | 0.44 | 79 | 1010.2 |
| 20260506173105 | 52 | 11 | 3.0 | 6.0 | 0.00 | 0.63 | 0.44 | 79 | 1010.1 |
| 20260506172110 | 52 | 8 | 3.0 | 4.0 | 0.00 | 0.63 | 0.44 | 80 | 1010.1 |
| 20260506171105 | 53 | 14 | 2.0 | 3.0 | 0.00 | 0.64 | 0.44 | 79 | 1009.9 |
| 20260506170100 | 53 | 23 | 4.0 | 6.0 | 0.00 | 0.65 | 0.44 | 80 | 1009.9 |
| 20260506165103 | 53 | 6 | 4.0 | 6.0 | 0.00 | 0.65 | 0.44 | 79 | 1009.9 |
| 20260506164058 | 53 | 314 | 6.0 | 9.0 | 0.00 | 0.65 | 0.44 | 79 | 1009.7 |
| 20260506163033 | 53 | 316 | 6.0 | 9.0 | 0.00 | 0.65 | 0.44 | 78 | 1009.7 |
| 20260506162104 | 53 | 316 | 7.0 | 10.0 | 0.00 | 0.65 | 0.44 | 78 | 1009.8 |
| 20260506161103 | 53 | 333 | 8.0 | 10.0 | 0.00 | 0.65 | 0.44 | 76 | 1009.7 |
| 20260506160033 | 53 | 334 | 8.0 | 10.0 | 0.00 | 0.65 | 0.44 | 76 | 1009.7 |
| 20260506155051 | 54 | 334 | 8.0 | 10.0 | 0.00 | 0.65 | 0.44 | 76 | 1009.7 |
| 20260506154045 | 54 | 333 | 7.0 | 12.0 | 0.00 | 0.65 | 0.44 | 77 | 1009.6 |
| 20260506153052 | 54 | 333 | 7.0 | 12.0 | 0.00 | 0.65 | 0.44 | 78 | 1009.6 |
| 20260506151023 | 53 | 330 | 4.0 | 6.0 | 0.00 | 0.65 | 0.44 | 82 | 1009.6 |
| 20260506145038 | 52 | 339 | 4.0 | 6.0 | 0.00 | 0.65 | 0.44 | 83 | 1009.6 |
| 20260506144051 | 52 | 339 | 4.0 | 6.0 | 0.00 | 0.65 | 0.44 | 86 | 1009.6 |
| 20260506143058 | 52 | 334 | 3.0 | 4.0 | 0.00 | 0.65 | 0.44 | 86 | 1009.7 |
| 20260506142041 | 52 | 327 | 4.0 | 5.0 | 0.00 | 0.65 | 0.44 | 86 | 1009.7 |
| 20260506141022 | 51 | 329 | 3.0 | 4.0 | 0.00 | 0.65 | 0.44 | 86 | 1009.8 |
| 20260506140107 | 51 | 329 | 3.0 | 4.0 | 0.00 | 0.65 | 0.44 | 85 | 1009.7 |
| 20260506135023 | 51 | 2 | 5.0 | 8.0 | 0.00 | 0.65 | 0.44 | 85 | 1009.7 |
| 20260506133059 | 51 | 25 | 4.0 | 7.0 | 0.00 | 0.65 | 0.44 | 84 | 1009.8 |
| 20260506132023 | 51 | 15 | 4.0 | 7.0 | 0.00 | 0.65 | 0.44 | 84 | 1009.8 |
| 20260506131100 | 51 | 15 | 4.0 | 7.0 | 0.00 | 0.65 | 0.44 | 83 | 1009.6 |
| 20260506130029 | 52 | 8 | 5.0 | 9.0 | 0.00 | 0.65 | 0.44 | 82 | 1009.6 |
| 20260506124022 | 51 | 354 | 8.0 | 12.0 | 0.00 | 0.65 | 0.44 | 82 | 1009.6 |
| 20260506123101 | 51 | 354 | 8.0 | 12.0 | 0.00 | 0.65 | 0.44 | 82 | 1009.4 |
| 20260506122022 | 51 | 3 | 7.0 | 12.0 | 0.00 | 0.65 | 0.44 | 85 | 1009.3 |
| 20260506121021 | 51 | 3 | 7.0 | 12.0 | 0.00 | 0.65 | 0.44 | 87 | 1009.3 |
| 20260506120056 | 50 | 350 | 6.0 | 12.0 | 0.00 | 0.65 | 0.44 | 89 | 1009.3 |
| 20260506114059 | 49 | 1 | 4.0 | 7.0 | 0.00 | 0.65 | 0.44 | 91 | 1009.4 |
| 20260506112100 | 50 | 357 | 7.0 | 12.0 | 0.00 | 0.65 | 0.44 | 91 | 1009.3 |
| 20260506105058 | 48 | 355 | 8.0 | 11.0 | 0.00 | 0.65 | 0.44 | 94 | 1009.5 |
| 20260506104052 | 48 | 355 | 8.0 | 12.0 | 0.01 | 0.65 | 0.44 | 95 | 1009.6 |
| 20260506103051 | 47 | 358 | 7.0 | 11.0 | 0.01 | 0.65 | 0.44 | 95 | 1009.5 |
| 20260506102100 | 47 | 4 | 7.0 | 13.0 | 0.02 | 0.65 | 0.44 | 96 | 1009.4 |
| 20260506101043 | 47 | 4 | 8.0 | 12.0 | 0.02 | 0.65 | 0.44 | 96 | 1009.3 |
| 20260506100051 | 47 | 8 | 7.0 | 12.0 | 0.02 | 0.65 | 0.44 | 97 | 1009.2 |
| 20260506095028 | 47 | 2 | 8.0 | 14.0 | 0.03 | 0.65 | 0.44 | 97 | 1009.1 |
| 20260506094058 | 47 | 2 | 8.0 | 14.0 | 0.04 | 0.65 | 0.44 | 97 | 1009.1 |
| 20260506093051 | 47 | 2 | 6.0 | 11.0 | 0.03 | 0.64 | 0.43 | 98 | 1009.0 |
| 20260506092055 | 46 | 7 | 7.0 | 11.0 | 0.03 | 0.64 | 0.43 | 98 | 1008.9 |
| 20260506091056 | 46 | 4 | 7.0 | 14.0 | 0.03 | 0.63 | 0.43 | 98 | 1008.9 |
| 20260506090101 | 47 | 357 | 7.0 | 12.0 | 0.04 | 0.64 | 0.43 | 98 | 1008.8 |
| 20260506085059 | 46 | 359 | 8.0 | 12.0 | 0.04 | 0.63 | 0.42 | 98 | 1008.7 |
| 20260506084053 | 46 | 357 | 8.0 | 14.0 | 0.03 | 0.62 | 0.41 | 98 | 1008.6 |
| 20260506083051 | 46 | 352 | 9.0 | 14.0 | 0.02 | 0.61 | 0.40 | 98 | 1008.5 |
| 20260506082023 | 46 | 352 | 8.0 | 11.0 | 0.03 | 0.61 | 0.40 | 98 | 1008.5 |
| 20260506073056 | 46 | 346 | 9.0 | 12.0 | 0.02 | 0.59 | 0.38 | 98 | 1008.2 |
| 20260506072054 | 46 | 349 | 9.0 | 13.0 | 0.02 | 0.59 | 0.38 | 98 | 1008.1 |
| 20260506071057 | 46 | 346 | 9.0 | 12.0 | 0.02 | 0.58 | 0.37 | 98 | 1008.1 |
| 20260506062055 | 45 | 345 | 8.0 | 12.0 | 0.06 | 0.57 | 0.35 | 98 | 1007.9 |
| 20260506061054 | 45 | 344 | 8.0 | 11.0 | 0.08 | 0.57 | 0.35 | 98 | 1007.9 |